Weather in Chisten'koe

Russia / Republic of Crimea     44°52′51″N   34°02′42″E
temp.,
°C
wind,
m/s
gust,
m/s
humid.,
%
clouds,
%
prec.,
mm/h
press.,
hPa
HPBL,
m
28 february, sun
sun2800:00+5nnw5890100 0.9 1019514
03:00+4nnw4783100 1.3 1019669
06:00+3nnw3682100 0.1 1020563
09:00+3nw4690100 0.4 1021482
12:00+3nw4694100 0.6 1023454
15:00+5nw566796 1.1 10221070
18:00+4nw467596 0.3 1023747
21:00+2nw379092 0.5 1024378
1 march, mon
mon100:00+1wsw129796 0.1 1024100
03:00+1ssw239398 0.1 1024123
06:00+1ssw239599 0.3 1024264
09:00+2sse1180100 0.3 1025162
12:00+4nne2264100 0.0 1026886
15:00+5n325999 0.0 10261072
18:00+4nne446486 0.0 1027814
21:00+1ene358460 0.0 1029146
2 march, tue
tue200:000ene22870 0.0 103026
03:000ne22891 0.0 103045
06:00−1ne12892 0.0 103023
09:00+1n11783 0.0 1031197
12:00+4wnw22580 0.0 1031935
15:00+5w54581 0.0 10291003
18:00+2w567126 0.0 1027628
21:00+1sw488059 0.0 1026310
3 march, wed
wed300:00+2sw6108270 0.0 1025446
03:00+4sw7128684 0.0 1022722
06:00+4wnw498898 0.0 1022485
09:00+3nnw588094 0.1 1024813
12:00+4n5760100 0.1 10251242
15:00+7n565280 0.1 10261428
18:00+5nnw36580 0.0 1026335
21:00+2ne11660 0.0 102822
4 march, thu
thu400:00+1ssw22680 0.0 102922
03:00+1s33700 0.0 102835
06:00+1s23710 0.0 102732
09:00+3s34610 0.0 1027188
12:00+7sw45490 0.0 10251068
15:00+8wsw56530 0.0 1024997
18:00+5wsw58660 0.0 1022621
21:00+2ssw36800 0.0 1021192